User: anonymous   Login
Location: Mercogliano
(40.9167°N, 14.7333°E)
Time: 22:55:53
(UTC+00:00)
Language:

Cosmos 1603 - Orbit

View from above orbital plane
View from above orbital plane
View from above satellite
View from above satellite

Ground track
Ground track

The orbit data is extracted from the following two-line orbital elements,

1 15333U 84106A   20332.42113998 +.00000124 +00000-0 +89925-4 0  9995
2 15333 071.0252 335.4381 0017471 090.6067 269.7058 14.14101889866036
Epoch (UTC): 27 November 2020 10:06:26
Eccentricity: 0.0017471
inclination: 71.0252°
perigee height: 833 km
apogee height: 858 km
right ascension of ascending node: 335.4381°
argument of perigee: 90.6067°
revolutions per day: 14.14101889
mean anomaly at epoch: 269.7058°
orbit number at epoch: 86603

The dashed part of the orbit path shows where the satellite is in the earth's shadow,  

DLR